AWE96 MGGT-KLAX

Flight info

Callsign AWE96
Flight time N/A
Altitude 36000
Route GABEN2B GABEN UA552 VER DCT PPE DCT AMMOR SNSTT2
Aircraft B737/M-SDE2E3FGHIRWXY/LB1

Departure

Time 2026-04-15 23:48
Airport La Aurora International Airport (MGGT)

Arrival

Time N/A
Airport Los Angeles International Airport (KLAX)
Time Latitude Longitude Altitude Speed Heading
2026-04-15 23:22 14.59048 -90.52840 4957 ft 0 kts 287°
2026-04-15 23:27 14.59048 -90.52839 4955 ft 0 kts 287°
2026-04-15 23:31 14.59047 -90.52839 4955 ft 0 kts 287°
2026-04-15 23:37 14.59045 -90.52832 4955 ft 4 kts 287°
2026-04-15 23:37 14.59037 -90.52805 4951 ft 4 kts 290°
2026-04-15 23:37 14.59027 -90.52780 4946 ft 4 kts 297°
2026-04-15 23:37 14.59012 -90.52757 4945 ft 4 kts 322°
2026-04-15 23:38 14.58996 -90.52750 4944 ft 1 kts 17°
2026-04-15 23:40 14.59003 -90.52752 4947 ft 1 kts 336°
2026-04-15 23:40 14.59005 -90.52762 4947 ft 2 kts 266°
2026-04-15 23:40 14.58985 -90.52766 4946 ft 6 kts 176°
2026-04-15 23:40 14.58945 -90.52768 4946 ft 0 kts 191°
2026-04-15 23:41 14.58940 -90.52769 4946 ft 3 kts 191°
2026-04-15 23:41 14.58892 -90.52780 4946 ft 10 kts 194°
2026-04-15 23:42 14.58825 -90.52768 4945 ft 10 kts 142°
2026-04-15 23:42 14.58786 -90.52711 4943 ft 9 kts 112°
2026-04-15 23:42 14.58755 -90.52685 4942 ft 6 kts 180°
2026-04-15 23:42 14.58730 -90.52689 4942 ft 0 kts 193°
2026-04-15 23:43 14.58729 -90.52690 4942 ft 0 kts 193°
2026-04-15 23:43 14.58725 -90.52691 4942 ft 1 kts 198°
2026-04-15 23:43 14.58714 -90.52695 4942 ft 6 kts 198°
2026-04-15 23:43 14.58618 -90.52726 4935 ft 23 kts 197°
2026-04-15 23:44 14.58424 -90.52789 4934 ft 34 kts 197°
2026-04-15 23:44 14.58204 -90.52859 4930 ft 32 kts 197°
2026-04-15 23:44 14.57996 -90.52927 4912 ft 31 kts 197°
2026-04-15 23:44 14.57795 -90.52993 4908 ft 31 kts 197°
2026-04-15 23:45 14.57598 -90.53055 4902 ft 29 kts 197°
2026-04-15 23:45 14.57412 -90.53114 4901 ft 27 kts 198°
2026-04-15 23:45 14.57238 -90.53173 4899 ft 26 kts 198°
2026-04-15 23:45 14.57115 -90.53211 4898 ft 5 kts 189°
2026-04-15 23:46 14.57085 -90.53206 4897 ft 4 kts 155°
2026-04-15 23:46 14.57068 -90.53180 4892 ft 4 kts 103°
2026-04-15 23:46 14.57078 -90.53153 4891 ft 4 kts 38°
2026-04-15 23:46 14.57089 -90.53148 4893 ft 0 kts 21°
2026-04-15 23:47 14.57094 -90.53146 4895 ft 8 kts 20°
2026-04-15 23:48 14.57308 -90.53078 4895 ft 57 kts 18°
2026-04-15 23:48 14.57830 -90.52907 4908 ft 99 kts 17°
2026-04-15 23:48 14.58607 -90.52659 4933 ft 134 kts 17°
2026-04-15 23:48 14.59757 -90.52290 5670 ft 423 kts 17°
2026-04-15 23:49 14.61498 -90.51760 6910 ft 244 kts 18°
2026-04-15 23:49 14.63122 -90.51237 6875 ft 253 kts 12°
2026-04-15 23:49 14.64937 -90.51451 7138 ft 279 kts 334°
2026-04-15 23:49 14.66426 -90.52756 7851 ft 285 kts 314°
2026-04-15 23:50 14.68050 -90.53905 8622 ft 287 kts 346°
2026-04-15 23:50 14.69970 -90.53908 9567 ft 281 kts 18°
2026-04-15 23:50 14.71623 -90.53300 10371 ft 283 kts 18°
2026-04-15 23:51 14.72444 -90.53036 10594 ft 290 kts 19°
2026-04-15 23:51 14.74358 -90.52144 10805 ft 315 kts 24°
2026-04-15 23:51 14.76576 -90.51719 10995 ft 339 kts 355°
2026-04-15 23:51 14.78831 -90.52540 11392 ft 354 kts 326°
2026-04-15 23:52 14.80522 -90.54413 11931 ft 365 kts 301°
2026-04-15 23:52 14.81600 -90.56816 12490 ft 372 kts 298°
2026-04-15 23:52 14.83006 -90.59073 13093 ft 374 kts 307°
2026-04-15 23:52 14.83944 -90.60413 13472 ft 377 kts 306°
2026-04-15 23:53 14.84957 -90.61942 13847 ft 381 kts 304°
2026-04-15 23:53 14.86438 -90.64237 14366 ft 385 kts 304°
2026-04-15 23:53 14.87929 -90.66545 14969 ft 387 kts 304°
2026-04-15 23:54 14.89433 -90.68861 15471 ft 391 kts 305°
2026-04-15 23:54 14.90967 -90.71206 15998 ft 395 kts 305°
2026-04-15 23:54 14.92509 -90.73560 16574 ft 396 kts 305°
2026-04-15 23:54 14.94057 -90.75924 17115 ft 398 kts 305°
2026-04-15 23:55 14.95595 -90.78272 17612 ft 402 kts 305°
2026-04-15 23:55 14.97164 -90.80671 18128 ft 405 kts 306°
2026-04-15 23:55 14.98758 -90.83108 18465 ft 412 kts 305°
2026-04-15 23:55 15.00349 -90.85544 19166 ft 405 kts 305°
2026-04-15 23:56 15.01930 -90.87966 19594 ft 410 kts 306°
2026-04-15 23:56 15.03538 -90.90428 19924 ft 415 kts 305°
2026-04-15 23:56 15.05149 -90.92897 20472 ft 413 kts 306°
2026-04-15 23:56 15.06761 -90.95365 20920 ft 415 kts 306°
2026-04-15 23:57 15.08381 -90.97848 21370 ft 417 kts 305°
2026-04-15 23:57 15.09980 -91.00301 21845 ft 417 kts 306°
2026-04-15 23:57 15.11607 -91.02797 22261 ft 419 kts 305°
2026-04-15 23:57 15.13244 -91.05308 22683 ft 421 kts 305°
2026-04-15 23:58 15.14885 -91.07826 23071 ft 423 kts 305°
2026-04-15 23:58 15.16533 -91.10356 23450 ft 425 kts 305°
2026-04-15 23:58 15.18189 -91.12898 23808 ft 427 kts 306°
2026-04-15 23:58 15.19846 -91.15443 24196 ft 426 kts 306°
2026-04-15 23:59 15.21506 -91.17993 24542 ft 427 kts 306°
2026-04-15 23:59 15.23173 -91.20555 24804 ft 431 kts 306°
2026-04-15 23:59 15.24827 -91.23099 25115 ft 432 kts 306°
2026-04-15 23:59 15.26499 -91.25672 25548 ft 430 kts 306°
2026-04-16 00:00 15.28167 -91.28240 25906 ft 430 kts 306°
2026-04-16 00:00 15.29846 -91.30823 26114 ft 435 kts 306°
2026-04-16 00:00 15.31542 -91.33435 26324 ft 439 kts 305°
2026-04-16 00:00 15.33251 -91.36069 26597 ft 441 kts 306°
2026-04-16 00:01 15.34960 -91.38702 26943 ft 441 kts 305°
2026-04-16 00:01 15.36672 -91.41340 27209 ft 443 kts 305°
2026-04-16 00:01 15.38394 -91.43994 27432 ft 445 kts 305°
2026-04-16 00:01 15.40123 -91.46658 27684 ft 446 kts 305°
2026-04-16 00:02 15.41837 -91.49302 27924 ft 448 kts 305°
2026-04-16 00:02 15.43578 -91.51988 28183 ft 449 kts 306°
2026-04-16 00:02 15.45322 -91.54680 28441 ft 451 kts 305°
2026-04-16 00:02 15.47072 -91.57384 28667 ft 453 kts 305°
2026-04-16 00:03 15.48833 -91.60105 28930 ft 455 kts 305°
2026-04-16 00:03 15.50597 -91.62831 29198 ft 456 kts 305°
2026-04-16 00:03 15.52365 -91.65564 29458 ft 457 kts 305°
2026-04-16 00:03 15.53539 -91.67380 29622 ft 458 kts 305°
2026-04-16 00:04 15.55891 -91.71020 29989 ft 458 kts 305°
2026-04-16 00:04 15.57658 -91.73757 30366 ft 456 kts 305°
2026-04-16 00:04 15.59418 -91.76482 30669 ft 455 kts 305°
2026-04-16 00:04 15.61183 -91.79217 30899 ft 456 kts 305°
2026-04-16 00:05 15.62949 -91.81953 31155 ft 457 kts 305°
2026-04-16 00:05 15.64713 -91.84687 31418 ft 455 kts 304°
2026-04-16 00:05 15.65878 -91.86494 31637 ft 455 kts 304°
2026-04-16 00:05 15.68225 -91.90135 32068 ft 453 kts 304°
2026-04-16 00:06 15.69953 -91.92816 32410 ft 452 kts 304°
2026-04-16 00:06 15.71717 -91.95517 32678 ft 453 kts 306°
2026-04-16 00:06 15.73637 -91.98089 33105 ft 449 kts 309°
2026-04-16 00:06 15.74957 -91.99734 33337 ft 448 kts 309°
2026-04-16 00:07 15.76986 -92.02194 33577 ft 449 kts 310°
2026-04-16 00:07 15.79031 -92.04662 33704 ft 452 kts 309°
2026-04-16 00:07 15.81070 -92.07143 33986 ft 451 kts 309°
2026-04-16 00:07 15.83099 -92.09638 34204 ft 452 kts 309°
2026-04-16 00:08 15.85111 -92.12136 34505 ft 449 kts 308°